• Join FlightAware (Why Join?)
  • Login
  • US Flag 
08:07AM EDT


 

Airport Tracker/Info


-or-


 

Live Flight TrackerFlight Track Log ✈ FDX1570 ✈ 11-May-2013 ✈ KMEM - KALB

Flight Track Log - Related Links

Times and Time Zones

All times are in EDT time to prevent confusion due to time zone crossing. See the FDX1570 flight status page for this flight to view local times or setup timezone preferences in your user account.

Time Position Orientation Groundspeed Altitude Reporting Facility
EDT Latitude Longitude Course Direction KTS MPH feet Rate Location/Type
04:36AM 35.0500 -89.9667 15° North 155 178 1,300  Level KMEM
04:37AM 35.1000 -89.9500 15° North 223 257 3,400 2,220 Climbing KMEM
04:38AM 35.1167 -89.8500 78° East 285 328 6,300 2,880 Climbing KMEM
04:39AM 35.1333 -89.7500 78° East 296 341 9,800 2,400 Climbing KMEM
04:40AM 35.1533 -89.6486 76° East 355 409 11,200 1,680 Climbing Memphis Center
04:41AM 35.1733 -89.5161 80° East 386 444 13,100 2,340 Climbing Memphis Center
04:42AM 35.1975 -89.3789 78° East 404 465 15,900 2,400 Climbing Memphis Center
04:43AM 35.2275 -89.2386 75° East 416 479 17,900 2,100 Climbing Memphis Center
04:44AM 35.2972 -89.1131 56° Northeast 422 486 20,100 2,040 Climbing Memphis Center
04:45AM 35.3731 -88.9819 55° Northeast 449 517 22,000 1,560 Climbing Memphis Center
04:50AM 35.8250 -88.2260 55° Northeast 533 613 30,400 1,380 Climbing FlightAware
04:51AM 35.9100 -88.0830 54° Northeast 541 623 31,100 1,380 Climbing FlightAware
04:52AM 35.9740 -87.9750 54° Northeast 552 635 32,700 1,920 Climbing FlightAware
04:53AM 36.0400 -87.8620 54° Northeast 552 635 33,900 1,380 Climbing FlightAware
04:54AM 36.1100 -87.7420 54° Northeast 561 646 34,800 720 Climbing FlightAware
04:54AM 36.1700 -87.6390 54° Northeast 570 656 35,000 600 Climbing FlightAware
04:55AM 36.2340 -87.5300 54° Northeast 576 663 35,600 1,320 Climbing FlightAware
04:56AM 36.3010 -87.4130 55° Northeast 557 641 36,900 960 Climbing FlightAware
04:56AM 36.3590 -87.3140 54° Northeast 536 617 37,000 60 Climbing FlightAware
04:57AM 36.4250 -87.2000 54° Northeast 534 615 37,000  Level FlightAware
04:58AM 36.4830 -87.1000 54° Northeast 536 617 37,000  Level FlightAware
04:58AM 36.5410 -86.9990 54° Northeast 537 618 37,000  Level FlightAware
04:59AM 36.6050 -86.8880 54° Northeast 540 621 37,000  Level FlightAware
04:59AM 36.6312 -86.8427 54° Northeast 542 624 37,000  Level FlightAware ADS-B
05:00AM 36.6770 -86.7612 55° Northeast 542 624 37,000  Level FlightAware ADS-B
05:00AM 36.7206 -86.6848 55° Northeast 544 626 37,000  Level FlightAware ADS-B
05:01AM 36.7647 -86.6079 54° Northeast 545 627 37,000  Level FlightAware ADS-B
05:02AM 36.8086 -86.5309 55° Northeast 548 631 37,000  Level FlightAware ADS-B
05:02AM 36.8528 -86.4506 55° Northeast 551 634 37,000  Level FlightAware ADS-B
05:03AM 36.8967 -86.3725 55° Northeast 552 635 37,000  Level FlightAware ADS-B
05:03AM 36.9453 -86.2866 55° Northeast 552 635 37,000  Level FlightAware ADS-B
05:04AM 36.9917 -86.2056 54° Northeast 550 633 37,000  Level FlightAware ADS-B
05:05AM 37.0740 -86.0570 55° Northeast 547 629 37,000  Level FlightAware
05:05AM 37.1290 -85.9590 55° Northeast 545 627 37,000  Level FlightAware
05:06AM 37.1930 -85.8420 55° Northeast 542 624 37,000  Level FlightAware
05:07AM 37.2710 -85.7010 55° Northeast 540 621 37,000  Level FlightAware
05:08AM 37.3350 -85.5840 55° Northeast 540 621 37,000  Level FlightAware
05:08AM 37.3940 -85.4790 55° Northeast 540 621 37,000  Level FlightAware
05:09AM 37.4560 -85.3650 56° Northeast 540 621 37,000  Level FlightAware
05:09AM 37.4662 -85.3468 55° Northeast 541 623 37,000  Level FlightAware ADS-B
05:10AM 37.5087 -85.2690 55° Northeast 541 623 37,000  Level FlightAware ADS-B
05:10AM 37.5549 -85.1835 56° Northeast 540 621 37,000  Level FlightAware ADS-B
05:11AM 37.6038 -85.0951 55° Northeast 540 621 37,000  Level FlightAware ADS-B
05:11AM 37.6472 -85.0145 56° Northeast 541 623 37,000  Level FlightAware ADS-B
05:12AM 37.6870 -84.9420 55° Northeast 540 621 37,000  Level FlightAware
05:13AM 37.7760 -84.7740 56° Northeast 543 625 37,000  Level FlightAware
05:13AM 37.8330 -84.6690 55° Northeast 543 625 37,000  Level FlightAware
05:14AM 37.8880 -84.5640 56° Northeast 544 626 37,000  Level FlightAware
05:15AM 37.9510 -84.4470 56° Northeast 544 626 37,000  Level FlightAware
05:15AM 37.9755 -84.4026 55° Northeast 544 626 37,000  Level FlightAware ADS-B
05:16AM 38.0510 -84.2590 56° Northeast 542 624 37,000  Level FlightAware
05:17AM 38.1410 -84.0890 56° Northeast 544 626 37,000  Level FlightAware
05:18AM 38.1890 -83.9990 56° Northeast 544 626 37,000  Level FlightAware
05:19AM 38.2370 -83.9090 56° Northeast 544 626 37,000  Level FlightAware
05:19AM 38.2850 -83.8180 56° Northeast 544 626 37,000  Level FlightAware
05:20AM 38.3330 -83.7280 56° Northeast 544 626 37,000  Level FlightAware
05:21AM 38.3920 -83.6150 56° Northeast 544 626 37,000  Level FlightAware
05:21AM 38.4400 -83.5240 56° Northeast 544 626 37,000  Level FlightAware
05:22AM 38.4880 -83.4340 56° Northeast 544 626 37,000  Level FlightAware
05:23AM 38.5360 -83.3430 56° Northeast 544 626 37,000  Level FlightAware
05:23AM 38.5840 -83.2520 56° Northeast 544 626 37,000  Level FlightAware
05:24AM 38.7270 -82.9550 58° Northeast 543 625 37,000  Level FlightAware
05:25AM 38.7820 -82.8440 58° Northeast 543 625 37,000  Level FlightAware
05:26AM 38.8360 -82.7390 57° Northeast 543 625 37,000  Level FlightAware
05:26AM 38.8820 -82.6470 57° Northeast 543 625 37,000  Level FlightAware
05:27AM 38.9450 -82.5190 58° Northeast 543 625 37,000  Level FlightAware
05:28AM 39.0140 -82.3830 57° Northeast 544 626 37,000  Level FlightAware
05:28AM 39.0680 -82.2750 57° Northeast 544 626 37,000  Level FlightAware
05:29AM 39.1210 -82.1680 57° Northeast 543 625 37,000  Level FlightAware
05:30AM 39.1800 -82.0480 58° Northeast 541 623 37,000  Level FlightAware
05:30AM 39.2340 -81.9400 57° Northeast 541 623 37,000  Level FlightAware
05:31AM 39.2970 -81.8110 58° Northeast 541 623 37,000  Level FlightAware
05:32AM 39.3450 -81.7130 58° Northeast 541 623 37,000  Level FlightAware
05:33AM 39.4030 -81.5950 58° Northeast 541 623 37,000  Level FlightAware
05:33AM 39.4620 -81.4720 58° Northeast 540 621 37,000  Level FlightAware
05:34AM 39.5140 -81.3650 58° Northeast 539 620 37,000  Level FlightAware
05:35AM 39.5750 -81.2400 58° Northeast 537 618 37,000  Level FlightAware
05:35AM 39.6280 -81.1280 58° Northeast 536 617 37,000  Level FlightAware
05:36AM 39.6800 -81.0180 58° Northeast 536 617 37,000  Level FlightAware
05:37AM 39.7360 -80.9010 58° Northeast 535 616 37,000  Level FlightAware
05:37AM 39.7890 -80.7890 58° Northeast 535 616 37,000  Level FlightAware
05:38AM 39.8480 -80.6650 58° Northeast 536 617 37,000  Level FlightAware
05:39AM 39.8930 -80.5690 59° Northeast 536 617 37,000  Level FlightAware
05:40AM 39.9530 -80.4430 58° Northeast 537 618 37,000  Level FlightAware
05:40AM 40.0100 -80.3210 59° Northeast 537 618 37,000  Level FlightAware
05:41AM 40.0550 -80.2240 59° Northeast 536 617 37,000  Level FlightAware
05:42AM 40.1200 -80.0830 59° Northeast 535 616 37,000  Level FlightAware
05:42AM 40.1700 -79.9760 59° Northeast 533 613 37,000  Level FlightAware
05:43AM 40.2220 -79.8630 59° Northeast 529 609 37,000  Level FlightAware
05:44AM 40.2770 -79.7420 59° Northeast 527 606 37,000  Level FlightAware
05:44AM 40.3270 -79.6360 58° Northeast 526 605 37,000  Level FlightAware
05:45AM 40.3830 -79.5100 60° Northeast 525 604 37,000  Level FlightAware
05:46AM 40.4280 -79.4140 58° Northeast 520 598 37,000  Level FlightAware
05:47AM 40.4770 -79.3050 59° Northeast 520 598 37,000  Level FlightAware
05:47AM 40.5310 -79.1840 60° Northeast 523 602 37,000  Level FlightAware
05:48AM 40.5870 -79.0590 59° Northeast 521 600 37,000  Level FlightAware
05:49AM 40.6653 -78.8806 59° Northeast 519 597 37,000  Level Cleveland Center
05:55AM 41.1072 -77.8769 59° Northeast 37,000  Level FlightAware ADS-B
05:56AM 41.1544 -77.7667 60° Northeast 517 595 37,000  Level FlightAware ADS-B
05:56AM 41.1930 -77.6784 60° Northeast 516 594 37,000  Level FlightAware ADS-B
05:58AM 41.2850 -77.4788 58° Northeast 516 594 37,000  Level FlightAware ADS-B
05:58AM 41.3165 -77.4202 54° Northeast 514 592 37,000  Level FlightAware ADS-B
05:59AM 41.3682 -77.3289 53° Northeast 513 590 37,000  Level FlightAware ADS-B
05:59AM 41.4143 -77.2451 54° Northeast 512 589 37,000  Level FlightAware ADS-B
06:00AM 41.4563 -77.1687 54° Northeast 512 589 37,000  Level FlightAware ADS-B
06:00AM 41.5090 -77.0713 54° Northeast 513 590 37,000  Level FlightAware ADS-B
06:01AM 41.5507 -76.9916 55° Northeast 513 590 37,000  Level FlightAware ADS-B
06:01AM 41.5923 -76.9140 54° Northeast 514 592 37,000  Level FlightAware ADS-B
06:02AM 41.6336 -76.8366 54° Northeast 513 590 37,000  Level FlightAware ADS-B
06:02AM 41.6753 -76.7591 54° Northeast 514 592 37,000  Level FlightAware ADS-B
06:03AM 41.7168 -76.6814 54° Northeast 513 590 37,000 -840 Level FlightAware ADS-B
06:03AM 41.7586 -76.6020 55° Northeast 505 581 36,200 -2,400 Descending FlightAware ADS-B
06:04AM 41.8000 -76.5225 55° Northeast 512 589 34,600 -3,240 Descending FlightAware ADS-B
06:04AM 41.8435 -76.4415 54° Northeast 518 596 32,800 -3,180 Descending FlightAware ADS-B
06:05AM 41.8863 -76.3600 55° Northeast 519 597 31,300 -2,520 Descending FlightAware ADS-B
06:07AM 42.0700 -76.0070 55° Northeast 512 589 25,500 -1,860 Descending FlightAware
06:08AM 42.1280 -75.8960 55° Northeast 512 589 25,500  Level FlightAware
06:09AM 42.1740 -75.8070 55° Northeast 512 589 25,500 -1,440 Level FlightAware
06:10AM 42.2960 -75.5200 60° Northeast 495 570 22,500 -1,620 Descending FlightAware
06:11AM 42.3230 -75.4130 71° East 491 565 22,200 -420 Descending FlightAware
06:12AM 42.3680 -75.2430 70° East 488 562 21,800 -2,580 Descending FlightAware
06:13AM 42.4044 -75.1114 70° East 483 556 17,700 -3,000 Descending Boston Center
06:14AM 42.4544 -74.9306 69° East 463 533 15,400 -1,680 Descending Boston Center
06:15AM 42.4953 -74.7717 71° East 411 473 13,700 -1,620 Descending Boston Center
06:16AM 42.5197 -74.6908 68° East 343 395 12,700 -1,620 Descending Boston Center
06:16AM 42.5292 -74.6461 74° East 348 400 12,100 -1,380 Descending Boston Center
06:17AM 42.5578 -74.5542 67° East 341 392 11,200 -1,140 Descending Boston Center
06:18AM 42.6033 -74.4542 58° Northeast 310 357 10,100 -1,200 Descending Boston Center
06:19AM 42.6617 -74.3403 55° Northeast 305 351 8,600 -1,500 Descending Boston Center
06:20AM 42.7006 -74.2653 55° Northeast 303 349 7,100 -1,620 Descending Boston Center
06:21AM 42.7500 -74.1678 55° Northeast 306 352 5,700 -1,200 Descending Boston Center
06:21AM 42.7586 -74.1508 55° Northeast 300 345 5,500 -1,380 Descending Boston Center
06:22AM 42.7972 -74.0728 56° Northeast 302 348 4,300 -1,620 Descending Boston Center
06:22AM 42.8144 -74.0392 55° Northeast 295 339 3,900 -840 Descending Boston Center
06:23AM 42.8400 -73.9889 55° Northeast 275 316 3,500 -600 Descending Boston Center
06:23AM 42.8572 -73.9553 55° Northeast 282 325 3,300 -720 Descending Boston Center
06:24AM 42.8808 -73.9050 57° Northeast 246 283 2,800 -840 Descending Boston Center
06:24AM 42.8936 -73.8742 60° Northeast 252 290 2,500 -840 Descending Boston Center
06:25AM 42.8942 -73.8289 89° East 179 206 2,000 -540 Descending Boston Center
06:25AM 42.8797 -73.8169 149° Southeast 171 197 2,000  Level Boston Center
06:26AM 42.8528 -73.8108 171° South 131 151 2,000  Level Boston Center
06:26AM 42.8614 -73.7742 72° East 145 167 2,000 -540 Level Boston Center
06:27AM 42.8236 -73.8103 215° Southwest 97 112 1,500 -600 Descending Boston Center
06:28AM 42.7944 -73.8094 179° South 96 110 1,000 -600 Descending Boston Center
06:29AM 42.7653 -73.8061 175° South 104 120 400 -600 Descending Boston Center